Location: Elche
(38.2500°N, 0.7000°W)
Time: 23:17:23
(UTC+02:00)

Envisat - Visible Passes

Search period start: 17 October 2019 00:00
Search period end: 27 October 2019 00:00
Orbit: 764 x 766 km, 98.1° (Epoch: 17 October)

Date Brightness Start Highest point End Pass type
(mag) Time Alt. Az. Time Alt. Az. Time Alt. Az.
17 Oct 3.3 19:41:16 10° SE 19:46:05 46° ENE 19:50:56 10° N visible
17 Oct 5.7 21:21:50 10° SW 21:25:19 19° W 21:28:49 10° NW visible
18 Oct 4.3 20:43:32 10° S 20:48:19 42° W 20:53:09 10° NNW visible
19 Oct 3.0 20:06:26 10° SSE 20:11:30 84° ENE 20:16:36 10° N visible
20 Oct 5.4 21:09:56 10° SSW 21:13:58 24° W 21:18:01 10° NW visible
21 Oct 6.3 07:42:10 10° ENE 07:44:49 14° E 07:47:26 10° ESE visible
21 Oct 3.8 20:32:04 10° S 20:37:01 54° W 20:42:00 10° NNW visible
22 Oct 3.0 19:55:15 10° SSE 20:00:16 66° ENE 20:05:19 10° N visible
22 Oct 6.1 21:37:26 10° WSW 21:39:43 13° W 21:41:59 10° WNW visible
23 Oct 4.9 20:58:12 10° SSW 21:02:37 30° W 21:07:05 10° NW visible
24 Oct 6.7 07:32:23 10° ENE 07:33:25 11° E 07:34:27 10° E visible
24 Oct 3.3 20:20:41 10° S 20:25:44 70° WSW 20:30:50 10° NNW visible
25 Oct 3.2 19:44:09 10° SSE 19:49:03 51° ENE 19:53:57 10° N visible
25 Oct 5.8 21:25:07 10° SW 21:28:20 17° W 21:31:34 10° NW visible
26 Oct 6.0 07:55:30 10° NE 07:59:12 20° E 08:02:52 10° SE visible
26 Oct 4.5 20:46:36 10° SSW 20:51:18 38° W 20:56:02 10° NNW visible
